Orbital Elements at Epoch 2459200.5 (2020-Dec-17.0) TDB
Reference: JPL 38 (heliocentric ecliptic J2000)
Element | Value | Uncertainty (1-sigma) | Units |
e | .06137873738170999 | 2.2223e-08 | |
a | 2.754349454358157 | 1.1317e-08 | au |
q | 2.585290962541651 | 6.0954e-08 | au |
i | 10.27815021484041 | 4.0696e-07 | deg |
node | 305.8848622198602 | 3.1988e-06 | deg |
peri | 73.32589191914744 | 1.8578e-05 | deg |
M | 119.036681349392 | 1.7289e-05 | deg |
tp | 2458648.415827624363 (2019-Jun-13.91582762) | 7.9274e-05 | TDB |
period | 1669.655939683541 4.57 | 1.029e-05 2.817e-08 | d yr |
n | .2156132838171634 | 1.3288e-09 | deg/d |
Q | 2.923407946174663 | 1.2011e-08 | au |
|
| | Orbit Determination Parameters
Additional Information
|